Weather Roundup
Issued by NWS Chicago, IL

Home | Current Version | Previous Version | Text Only | Print | Product List | Glossary On
Versions: 1 2 3 4 5 6 7 8 9 10 11 12 13 14 15 16 17 18 19 20 21 22 23 24 25 26 27 28 29 30 31 32 33 34 35 36 37 38 39 40 41 42 43 44 45 46 47 48 49 50
000
NZUS59 KLOT 192012
HRRLOT

CHICAGO AREA WEATHER ROUNDUP
NATIONAL WEATHER SERVICE CHICAGO/ROMEOVILLE IL
200 PM CST THU JAN 19 2017

NOTE: "FAIR" INDICATES FEW OR NO CLOUDS BELOW 12,000 FEET WITH NO
SIGNIFICANT WEATHER AND/OR OBSTRUCTIONS TO VISIBILITY.

* THESE STATIONS ARE NOT UNDER NWS QUALITY CONTROL. THEY ALSO MAY NOT
  REPORT WEATHER SUCH AS PRECIPITATION OR FOG.

ILZ005-006-012>014-019>023-192100-
NORTHEAST ILLINOIS

CITY           SKY/WX    TMP DP  RH WIND       PRES   REMARKS
OHARE          CLOUDY    42  37  82 SE8       29.89F HAZE
MIDWAY         CLOUDY    42  35  76 SE7       29.91F HAZE
AURORA         PTSUNNY   41  37  86 SE8       29.89F FOG
LANSING*       CLOUDY    40  39  95 E7        29.91F FOG
JOLIET*        CLOUDY    42  39  92 E8        29.90F FOG
WAUKEGAN       CLOUDY    36  35  96 SE8       29.90F FOG
DUPAGE AIRPORT CLOUDY    42  36  79 S7        29.89F
WHEELING       PTSUNNY   42  36  79 SE6       29.91F HAZE
KANKAKEE*      CLOUDY    42  39  87 E9        29.89F
MORRIS*        LGT RAIN  40  38  89 E6        29.87F
LEWIS AIRPORT* PTSUNNY   40  39  97 SE9       29.89F FOG
NORTHERLY ISL    N/A     35  33  92 SE2         N/A
$$

WIZ051-052-058>065-066-070>072-192100-
SOUTHEAST WISCONSIN

CITY           SKY/WX    TMP DP  RH WIND       PRES   REMARKS
MILWAUKEE      FOG       36  33  89 SE6       29.91F VSB 1/4
KENOSHA*       FOG       36  35  96 SE6       29.91F VSB 1/2
RACINE*        CLOUDY    36  34  92 S10       29.92F FOG
WAUKESHA       MOSUNNY   34  34 100 SE3       29.91F FOG
WEST BEND      FOG       34  34 100 S3        29.89F VSB 1/4
$$

INZ001>003-010>013-019-020-192100-
NORTHWEST INDIANA

CITY           SKY/WX    TMP DP  RH WIND       PRES   REMARKS
GARY*          CLOUDY    43  36  75 SE9       29.92F HAZE
MICHIGAN CITY* NOT AVBL
RENSSELAER*    NOT AVBL
VALPARAISO     CLOUDY    40  37  89 E6        29.92F FOG
$$

LMZ740>746-192100-
SOUTHERN LAKE MICHIGAN

STATION/POSITION TIME  SKY/WX   TEMP WIND        PRES    VSBY
                                AIR  DIR/SP/G
                 (UTC)          (F)  (DEG/KT/KT) (MB)    (MI)
HARRISON CRIB    1940            37  130/ 12/ 13   N/A
BURNHAM HARBOR   2000            36   CALM  /  5   N/A
CALUMET HARBOR   1942            36  100/  5/  5 1012.7F
BURNS HARBOR     1940            40  160/  6/ 10 1014.2S
MICHIGAN CITY    1940            40  110/  6/  7   N/A
$$

ABBREVIATIONS USED IN REMARKS
   TC - TEMPERATURE IN CELSIUS
  WCI - WIND CHILL INDEX
   HX - HEAT INDEX
  VSB - VISIBILITY
$$




USA.gov is the U.S. government's official web portal to all federal, state and local government web resources and services.